Regional Weather Roundup
Issued by NWS

Home | Current Version | Previous Version | Text Only | Print | Product List | Glossary On
Versions: 1 2 3 4 5 6 7 8 9 10 11 12 13 14 15 16 17 18 19 20 21 22 23 24 25 26 27 28 29 30 31 32 33 34 35 36 37 38 39 40 41 42 43 44 45 46 47 48 49 50
662
ASUS46 KLOX 062313
RWRCA

SOUTHERN CALIFORNIA WEATHER ROUNDUP
NATIONAL WEATHER SERVICE OXNARD CALIFORNIA
400 PM PDT FRI MAY 06 2016

NOTE: "FAIR" INDICATES FEW OR NO CLOUDS BELOW 12,000 FEET WITH NO
SIGNIFICANT WEATHER AND/OR OBSTRUCTIONS TO VISIBILITY.

  -  STATIONS PRECEEDED BY AN ASTERISK (*) ARE NOT NWS OR FAA
     STATIONS AND ARE NOT SUBJECT TO NWS AND FAA QUALITY CONTROL.

CAZ041-042-087-070000-
LA AND ORANGE COUNTY COASTAL AREAS


CITY           SKY/WX    TMP DP  RH WIND       PRES   REMARKS
L.A. DOWNTOWN  CLOUDY    65  51  60 MISG      29.87F
L.A. AIRPORT   PTSUNNY   67  51  56 W15       29.89F
LONG BEACH     MOSUNNY   65  52  62 S13G20    29.89F

CITY           SKY/WX    TMP DP  RH WIND       PRES   REMARKS
AVALON           N/A     63 N/A N/A E6          N/A
FULLERTON      PTSUNNY   68  50  52 SW10      29.87F
HAWTHORNE      CLOUDY    64  50  60 W13       29.89F
*LEO CARRILLO    N/A     65  55  71 SW7         N/A
*LOS ALAMITOS  PTSUNNY   66  54  63 SW12      29.88F
*REDONDO BEACH   N/A     69  55  61 S3        29.89S
SANTA ANA      PTSUNNY   64  51  62 SW13      29.89F
STA MONICA APT PTSUNNY   66  53  63 SW8       29.89F
*STA MON PIER    N/A     60  55  84 W13       29.83S
TORRANCE       PTSUNNY   68  54  60 SW9       29.89F
*UCLA            N/A     63  50  63 SW18      29.86S

$$

CAZ547-548-048-070000-
LA COUNTY VALLEYS AND INLAND EMPIRE


CITY           SKY/WX    TMP DP  RH WIND       PRES   REMARKS
BURBANK        CLOUDY    64  46  52 S9        29.87S
VAN NUYS       PTSUNNY   62  50  64 W8        29.87F

CITY           SKY/WX    TMP DP  RH WIND       PRES   REMARKS
CORONA AIRPORT CLOUDY    64  50  60 SW8       29.87F
*CHATSWORTH      N/A     58  53  84 N6        29.89F
CHINO          CLOUDY    64  50  60 SW14      29.88F
*CLAREMONT       N/A     62  46  55 SW8         N/A
MARCH AFB      LGT RAIN  57  54  89 SE2       29.87F
*NORTHRIDGE      N/A     59  52  77 W3G9        N/A
ONTARIO        HAIL      56  49  77 NW18      29.89R
*PASADENA        N/A     55  54  94 CALM        N/A
RIVERSIDE      CLOUDY    65  46  50 CALM      29.87F
SAN BERNARDINO CLOUDY    64  48  55 E7        29.88F
*SAN GABRIEL     N/A     56  54  94 NE3       29.96S
*SAN RAFAEL HI   N/A     54  52  94 S5          N/A
*SAUGUS          N/A     60  48  64 SE13G25     N/A
*WHITEMAN AP   PTSUNNY   57  52  82 NW6       29.91S
*WHITTIER HILL   N/A     58  54  85 W7          N/A
*WOODLAND HILL   N/A     59  52  77 W6          N/A

$$

CAZ054-055-070000-
LA AND SAN BERNARDINO COUNTY MOUNTAINS


CITY           SKY/WX    TMP DP  RH WIND       PRES   REMARKS
*ACTON           N/A     57  42  56 SW14G25     N/A
*BIG BEAR AIRP CLOUDY    36  34  93 CALM      29.90F
*BIG PINES       N/A     43  34  69 SW3         N/A
SANDBERG       PTSUNNY   50  42  74 SW14      29.89F
*WARM SPRINGS    N/A     49  35  58 CALM        N/A

$$

CAZ028-029-059-060-099-070000-
ANTELOPE VALLEY AND SURROUNDING AREAS


CITY           SKY/WX    TMP DP  RH WIND       PRES   REMARKS
LANCASTER      MOSUNNY   63  41  44 SW24G32   29.84S
PALMDALE       MOSUNNY   64  41  42 SW24      29.83S
*POPPY PARK      N/A     62  42  47 SW22G33     N/A

CITY           SKY/WX    TMP DP  RH WIND       PRES   REMARKS
29 PALMS       CLOUDY    67  38  34 SW15      29.84F
BARSTOW/DAGGET CLOUDY    70  38  31 S17       29.77F
BISHOP         CLOUDY    61  34  36 S21G28    29.80R
CHINA LAKE     MOSUNNY   72  32  23 S15G23    29.73F
EDWARDS AFB    MOSUNNY   66  39  37 SW22G29   29.78F
MOJAVE         MOSUNNY   64  37  36 W13G22    29.81F
NEEDLES        LGT RAIN  71  47  42 W23G29    29.74R
VICTORVILLE    PTSUNNY   63  37  39 CALM      29.83F

$$

CAZ039-040-070000-
VENTURA AND SANTA BARBARA COUNTY COAST


CITY           SKY/WX    TMP DP  RH WIND       PRES   REMARKS
CAMARILLO      PTSUNNY   67  51  56 SW10      29.88F
NWS OXNARD       N/A     68  51  55 SW7       29.88S
OXNARD AIRPORT MOSUNNY   65  54  67 SW10      29.89F
*POINT MUGU    PTSUNNY   66  54  65 SW12      29.90F
SBA APT/GOLETA CLOUDY    63  51  65 W7        29.88F
*SANTA BARBARA   N/A     68  50  52 NE3       29.95F

$$

CAZ044-045-070000-
VENTURA COUNTY VALLEYS


CITY           SKY/WX    TMP DP  RH WIND       PRES   REMARKS
*SIMI VALLEY     N/A     56  54  91 CALM      29.87R
*WESTLAKE VILL   N/A     62  51  66 CALM      29.87F
*OJAI            N/A     56  54  91 NW1       29.85S
*FILLMORE        N/A     61  55  81 CALM      29.78S

$$

CAZ053-070000-
VENTURA COUNTY MOUNTAINS


CITY           SKY/WX    TMP DP  RH WIND       PRES   REMARKS
*LOCKWOOD VLY    N/A     43  39  87 CALM        N/A
*ROSE VALLEY     N/A     46  48 100 MISG        N/A

$$

CAZ034-035-036-070000-
CENTRAL COAST AND SANTA YNEZ VALLEY


CITY           SKY/WX    TMP DP  RH WIND       PRES   REMARKS
SAN LUIS OBISP PTSUNNY   65  50  58 NW22      29.88S
SANTA MARIA    CLOUDY    60  52  74 NW21G28   29.90R

CITY           SKY/WX    TMP DP  RH WIND       PRES   REMARKS
*CAL POLY SLO    N/A     64  54  68 SW9         N/A
*LOMPOC        CLOUDY    62  53  72 W17       29.90R
*PISMO BEACH     N/A     61  55  79 W14       29.88S
*SANTA YNEZ    RAIN      55  52  88 E6        29.90S

$$

CAZ037-038-051-070000-
SAN LUIS OBISPO COUNTY INTERIOR AND CUYAMA VALLEY


CITY           SKY/WX    TMP DP  RH WIND       PRES   REMARKS
*CUYAMA          N/A     56  48  72 N2        29.81F
PASO ROBLES    PTSUNNY   68  46  45 SW13      29.82S

$$

CAZ032-033-061-070000-
SOUTHERN DESERTS


CITY           SKY/WX    TMP DP  RH WIND       PRES   REMARKS
BLYTHE         CLOUDY    72  48  42 S32G39    29.78S HAZE
IMPERIAL       MOSUNNY   78  42  27 SW17G25   29.79S
PALM SPRINGS   CLOUDY    68  47  46 S5        29.81F
THERMAL        LGT RAIN  72  43  35 W15       29.77S

$$

ELSEWHERE ACROSS THE WESTERN UNITED STATES AND MEXICO


CITY           SKY/WX    TMP DP  RH WIND       PRES   REMARKS
DEATH VALLEY,    N/A     85  34  16 CALM        N/A
DENVER, CO     CLOUDY    78  36  21 S25G31    29.85F
GRAND CANYON,  PTSUNNY   59  15  18 SW17G28   29.88F
HONOLULU, HI   MOSUNNY   84  70  61 SW15      30.04F
KAHULUI, MAUI  PTSUNNY   81  70  69 N6        30.06S
LAKE TAHOE, CA MOSUNNY   51  34  52 VRB6      29.85S
LAS VEGAS, NV  CLOUDY    63  42  46 SE5       29.77S
MAMMOTH LAKES, FAIR      54  21  28 SE9       29.84F
MEXICO CITY, M PTSUNNY   81  32  17 NE12      30.22F
PHOENIX, AZ    PTSUNNY   77  42  28 W16       29.76F
PORTLAND, OR   MOSUNNY   81  49  32 NW10      29.89F
RENO, NV       CLOUDY    65  35  33 NE8       29.80F
SALT LAKE CITY LGT RAIN  57  49  74 N8        29.80R
SAN DIEGO, CA  PTSUNNY   67  52  58 SW12      29.91F
SAN FRANCISCO, CLOUDY    58  54  86 SW10      29.86F
SAN JOSE, CA   CLOUDY    58  53  84 SE13      29.86F
SEATTLE, WA    MOSUNNY   77  39  25 N17       30.01F
TIJUANA, MEX   PTSUNNY   64  48  55 W9        29.92F

$$

STATION/POSITION TIME  TEMP    WIND        PRES    VSBY  WAVE
                       AIR SEA DIR/SP/G                  HT/PER
                 (UTC) (F)     (DEG/KT/KT) (MB)    (MI)  (FT/S)
POINT ARGUELLO B NOT AVBL
WEST SANTA BARBA 2250   58 59  280/  8/  8 1011.9S         5/10
POINT CONCEPTION NOT AVBL
EAST SANTA BARBA 2200   59 59  300/  8/ 10 1012.9S
SANTA MONICA BAY 2250   60 63  240/  6/  8 1012.7F         3/14



USA.gov is the U.S. government's official web portal to all federal, state and local government web resources and services.